[[{"header":{"parameterUnit":"m.s-1","parameterCategory":1,"la1":30.2991,"la2":30.254,"lo1":-89.0895,"lo2":-89.0444,"dy":0.0017,"dx":0.0017,"nx":28,"ny":28,"refTime":"2025-04-27T21:00:00:Z","depth":0,"parameterNumber":2,"parameterNumberName":"U-component_of_WINDS"},"data":[0,0,0,0,0,0,0,0,0,0,0,0,0,0,0,0,0,0,0,0,0,0,0,0,0,0,0,0,0,0,0,0,0,0,0,0,0,0,0,0,0,0,0,0,0,0,0,0,0,0,0,0,0,0,0,0,0,0,-0.4599,-0.4598,0,-0.4497,-0.4496,-0.4495,-0.4466,-0.4467,-0.4467,-0.4468,-0.436,-0.4357,-0.4353,0,0,0,0,0,0,0,0,0,0,0,0,0,-0.4768,-0.4765,-0.4599,-0.4598,-0.4597,-0.4498,-0.4496,-0.4495,-0.4466,-0.4467,-0.4468,-0.4468,-0.4361,-0.4357,-0.4353,0,0,0,0,0,0,0,0,0,0,0,0,0,-0.4683,-0.4764,-0.4599,-0.4571,-0.4567,-0.4498,-0.4496,-0.4494,-0.4466,-0.4467,-0.4468,-0.4469,-0.4362,-0.4358,-0.4352,-0.4304,0,0,-0.4337,-0.4335,0,0,0,0,0,0,0,0,-0.4688,-0.4677,-0.4576,-0.4572,-0.4568,-0.4496,-0.4516,-0.443,-0.4466,-0.4504,-0.4468,-0.4469,-0.4404,-0.4396,-0.4375,-0.4299,-0.4294,-0.4336,-0.4333,-0.4331,-0.433,0,0,0,0,0,0,0,-0.4694,-0.4681,-0.4559,-0.4575,-0.457,-0.4563,-0.4551,-0.45,-0.445,-0.4501,-0.4499,-0.4487,-0.4402,-0.438,-0.4372,-0.4292,-0.4337,-0.4332,-0.4329,-0.4327,-0.4175,-0.4174,0,0,0,0,0,0,-0.4705,-0.4687,-0.4562,-0.4556,-0.4632,-0.4559,-0.4546,-0.4518,-0.4451,-0.4442,-0.4487,-0.4486,-0.4388,-0.4378,-0.4368,-0.4309,-0.4331,-0.4326,-0.4323,-0.4176,-0.4175,-0.4174,0,0,0,0,0,0,-0.4709,-0.4694,-0.4566,-0.4621,-0.4604,-0.4555,-0.4523,-0.4515,-0.4493,-0.444,-0.4431,-0.4473,-0.4388,-0.4375,-0.4321,-0.4304,-0.4324,-0.4319,-0.4177,-0.4176,-0.4175,-0.4188,0,0,0,0,0,0,-0.4714,-0.4696,-0.4677,-0.462,-0.4601,-0.4521,-0.4522,-0.4513,-0.4485,-0.4483,-0.4425,-0.4416,-0.4388,-0.4329,-0.4316,-0.4298,-0.4315,-0.4179,-0.4177,-0.4175,-0.4189,-0.4188,-0.4186,0,0,0,0,0,-0.472,-0.4683,-0.4676,-0.4661,-0.4576,-0.452,-0.4509,-0.4479,-0.4483,-0.4464,-0.4431,-0.4418,-0.4309,-0.4324,-0.4309,-0.4289,-0.418,-0.4177,-0.4175,-0.419,-0.4188,-0.4186,0,0,0,0,0,0,-0.4736,-0.4675,-0.4666,-0.461,-0.4571,-0.4515,-0.4489,-0.4477,-0.4434,-0.4435,-0.4398,-0.4385,-0.4334,-0.4306,-0.4324,-0.424,-0.4244,-0.4239,-0.426,-0.4258,-0.4256,-0.4264,-0.4311,0,0,0,0,0,-0.4734,-0.4694,-0.4642,-0.4597,-0.4579,-0.4538,-0.4512,-0.4493,-0.445,-0.4433,-0.4396,-0.4354,-0.4311,-0.4283,-0.424,-0.4186,-0.4173,-0.4165,-0.4164,-0.4163,-0.4158,-0.413,-0.4127,-0.4167,-0.4167,-0.4167,0,0,-0.4726,-0.4688,-0.4665,-0.46,-0.4567,-0.4527,-0.4524,-0.448,-0.4451,-0.4426,-0.4373,-0.4345,-0.4297,-0.4243,-0.4218,-0.4218,-0.4145,-0.416,-0.416,-0.4155,-0.4128,-0.4124,-0.4121,-0.4166,-0.4166,-0.4166,0,0,-0.4694,-0.4661,-0.4621,-0.459,-0.4542,-0.4515,-0.4506,-0.4454,-0.4435,-0.4382,-0.4364,-0.4328,-0.4253,-0.422,-0.4194,-0.4155,-0.4142,-0.4142,-0.4133,-0.4107,-0.4104,-0.4101,-0.4088,-0.4084,-0.4138,-0.4138,-0.4138,0,-0.4691,-0.4631,-0.4602,-0.4561,-0.4534,-0.4513,-0.4473,-0.4444,-0.4383,-0.4365,-0.4367,-0.4276,-0.4241,-0.4182,-0.4173,-0.4151,-0.4141,-0.4147,-0.4107,-0.4103,-0.41,-0.4087,-0.4083,-0.4138,-0.4138,-0.4138,-0.4138,0,-0.4631,-0.4589,-0.4563,-0.4509,-0.4478,-0.4438,-0.4404,-0.4377,-0.4362,-0.4336,-0.4284,-0.4243,-0.4193,-0.4177,-0.416,-0.4116,-0.4118,-0.4114,-0.4117,-0.4097,-0.4085,-0.408,-0.4139,-0.4138,-0.4138,-0.4138,0,0,-0.4602,-0.4535,-0.4526,-0.4503,-0.445,-0.4417,-0.4378,-0.4331,-0.4309,-0.4269,-0.4236,-0.4176,-0.4173,-0.4143,-0.4123,-0.41,-0.4074,-0.4098,-0.4097,-0.4096,-0.4024,-0.4028,-0.4023,-0.4066,-0.4065,-0.4064,-0.4029,0,-0.4563,-0.4492,-0.4467,-0.4408,-0.4371,-0.4353,-0.4318,-0.4283,-0.4259,-0.4224,-0.4196,-0.4155,-0.4154,-0.4136,-0.4112,-0.4082,-0.4059,-0.4084,-0.4034,-0.4032,-0.4047,-0.4016,-0.4019,-0.3988,-0.4024,-0.4023,-0.4022,0,-0.4507,-0.447,-0.4409,-0.4364,-0.4348,-0.4317,-0.4274,-0.4241,-0.4201,-0.4185,-0.4155,-0.4138,-0.4096,-0.4104,-0.4047,-0.4065,-0.4043,-0.4026,-0.4024,-0.4017,-0.4026,-0.4009,-0.3977,-0.3973,-0.4014,-0.4015,-0.4015,0,-0.4495,-0.4429,-0.4384,-0.4364,-0.4311,-0.4291,-0.4267,-0.4229,-0.4203,-0.4166,-0.4149,-0.4107,-0.4084,-0.4052,-0.4024,-0.4031,-0.3971,-0.3975,-0.3957,-0.3957,-0.3943,-0.3944,-0.3907,-0.393,-0.393,-0.393,-0.393,0,-0.4454,-0.4417,-0.4378,-0.435,-0.431,-0.4282,-0.4243,-0.4218,-0.4185,-0.4153,-0.4134,-0.4104,-0.407,-0.4036,-0.4014,-0.3971,-0.3961,-0.3947,-0.3942,-0.3949,-0.3951,-0.3933,-0.3935,-0.3929,-0.3929,-0.3929,-0.3929,0,-0.4431,-0.4404,-0.4354,-0.431,-0.4298,-0.427,-0.4231,-0.4204,-0.4181,-0.4141,-0.413,-0.4093,-0.4053,-0.4023,-0.3969,-0.3955,-0.391,-0.3904,-0.3924,-0.3921,-0.3905,-0.3908,-0.3856,-0.3848,-0.3876,-0.3876,-0.3875,0,-0.4407,-0.4379,-0.4333,-0.4311,-0.4288,-0.4253,-0.4228,-0.4201,-0.4176,-0.4132,-0.4111,-0.407,-0.4035,-0.3972,-0.394,-0.39,-0.3893,-0.3878,-0.3887,-0.3896,-0.3894,-0.3896,-0.3894,-0.3876,-0.3876,-0.3876,-0.3876,0,-0.4367,-0.4356,-0.4322,-0.4284,-0.4255,-0.4223,-0.4191,-0.4174,-0.4142,-0.4115,-0.4075,-0.4048,-0.3997,-0.3956,-0.3914,-0.389,-0.3878,-0.3874,-0.3868,-0.3874,-0.3888,-0.3881,-0.3921,-0.3875,-0.3875,-0.3875,-0.3875,-0.3875,-0.4343,-0.4319,-0.4284,-0.4247,-0.4221,-0.4192,-0.4166,-0.4141,-0.4107,-0.4064,-0.405,-0.4009,-0.3974,-0.3916,-0.3893,-0.386,-0.386,-0.3851,-0.3848,-0.3847,-0.3848,-0.3894,-0.3852,-0.3852,-0.3852,-0.3852,-0.3852,0,-0.4304,-0.4282,-0.4248,-0.4205,-0.4177,-0.4171,-0.4136,-0.4112,-0.4077,-0.4045,-0.4013,-0.3969,-0.3931,-0.3898,-0.3859,-0.384,-0.3833,-0.383,-0.3831,-0.3826,-0.3849,-0.3859,-0.3836,-0.3836,-0.3836,-0.3836,-0.3836,-0.3836,-0.428,-0.4239,-0.4224,-0.4171,-0.4148,-0.4109,-0.409,-0.4065,-0.404,-0.3991,-0.3961,-0.394,-0.3909,-0.3868,-0.3834,-0.3825,-0.3812,-0.381,-0.38,-0.3822,-0.3824,-0.3826,-0.3835,-0.3808,-0.3807,-0.378,-0.378,-0.3779]},{"header":{"parameterUnit":"m.s-1","parameterCategory":1,"la1":30.2991,"la2":30.254,"lo1":-89.0895,"lo2":-89.0444,"dy":0.0017,"dx":0.0017,"nx":28,"ny":28,"refTime":"2025-04-27T21:00:00:Z","depth":0,"parameterNumber":3,"parameterNumberName":"V-component_of_WINDS"},"data":[0,0,0,0,0,0,0,0,0,0,0,0,0,0,0,0,0,0,0,0,0,0,0,0,0,0,0,0,0,0,0,0,0,0,0,0,0,0,0,0,0,0,0,0,0,0,0,0,0,0,0,0,0,0,0,0,0,0,3.61,3.6099,0,3.606,3.6059,3.6059,3.6088,3.609,3.6091,3.6092,3.6043,3.6041,3.6038,0,0,0,0,0,0,0,0,0,0,0,0,0,3.6195,3.6193,3.61,3.6099,3.6099,3.606,3.6059,3.6059,3.6088,3.609,3.6091,3.6093,3.6044,3.6041,3.6038,0,0,0,0,0,0,0,0,0,0,0,0,0,3.6154,3.6192,3.61,3.6109,3.6109,3.606,3.6059,3.6058,3.6088,3.609,3.6092,3.6093,3.6045,3.6041,3.6037,3.5974,0,0,3.6026,3.6024,0,0,0,0,0,0,0,0,3.6156,3.615,3.6108,3.6108,3.6109,3.6081,3.6075,3.603,3.6087,3.6096,3.6092,3.6094,3.6054,3.6049,3.6037,3.5972,3.597,3.6026,3.6023,3.6022,3.602,0,0,0,0,0,0,0,3.6159,3.6152,3.6084,3.6107,3.6108,3.6113,3.6109,3.6066,3.6064,3.6095,3.6097,3.6092,3.6054,3.6041,3.6036,3.5969,3.6026,3.6022,3.602,3.6018,3.5849,3.5847,0,0,0,0,0,0,3.6162,3.6154,3.6085,3.6083,3.6138,3.6109,3.6105,3.6088,3.6064,3.6063,3.6091,3.6094,3.6046,3.6041,3.6035,3.5958,3.6022,3.6018,3.6016,3.5851,3.5849,3.5846,0,0,0,0,0,0,3.6164,3.6155,3.6087,3.6119,3.6111,3.6106,3.6086,3.6086,3.6073,3.6061,3.606,3.6078,3.6048,3.604,3.5989,3.5957,3.6016,3.6013,3.5854,3.5851,3.5848,3.5805,0,0,0,0,0,0,3.6166,3.6156,3.6133,3.6118,3.6109,3.6044,3.6084,3.6084,3.6067,3.6071,3.6049,3.6047,3.6049,3.5995,3.5986,3.5953,3.601,3.5857,3.5853,3.5849,3.581,3.5801,3.5794,0,0,0,0,0,3.617,3.6122,3.6132,3.6124,3.6081,3.6042,3.6037,3.6041,3.6064,3.6041,3.6033,3.6048,3.5963,3.599,3.5979,3.5945,3.5859,3.5854,3.5849,3.5813,3.5803,3.5794,0,0,0,0,0,0,3.613,3.612,3.6131,3.6078,3.6061,3.6047,3.6018,3.603,3.6005,3.6009,3.6014,3.6008,3.5955,3.5945,3.5976,3.5882,3.5914,3.5907,3.589,3.588,3.5872,3.5875,3.6007,0,0,0,0,0,3.6116,3.6088,3.6079,3.6032,3.6024,3.6022,3.6005,3.6011,3.5993,3.5985,3.5974,3.5953,3.5922,3.5901,3.5871,3.5809,3.5803,3.578,3.5772,3.5766,3.5758,3.5723,3.5712,3.583,3.583,3.583,0,0,3.6084,3.6075,3.6057,3.6024,3.6012,3.598,3.6016,3.5981,3.5956,3.5979,3.5931,3.5922,3.5899,3.5843,3.5817,3.5832,3.5725,3.5759,3.5754,3.5751,3.5717,3.5706,3.5696,3.5827,3.5827,3.5828,0,0,3.6011,3.6002,3.5962,3.595,3.5932,3.5931,3.5922,3.5907,3.5902,3.5855,3.5871,3.5841,3.5787,3.577,3.5755,3.5676,3.5687,3.5666,3.5623,3.5589,3.558,3.5571,3.5541,3.5531,3.5659,3.5659,3.5659,0,3.5973,3.5929,3.5939,3.5903,3.5888,3.591,3.5867,3.5854,3.5826,3.5814,3.5832,3.5765,3.5752,3.5691,3.5672,3.5659,3.5646,3.5667,3.5581,3.5573,3.5565,3.5536,3.5525,3.5657,3.5657,3.5657,3.5658,0,3.5883,3.5852,3.5821,3.5796,3.5777,3.5738,3.574,3.572,3.5727,3.5724,3.5674,3.5659,3.5627,3.5613,3.5619,3.5552,3.5562,3.5581,3.5613,3.5551,3.5524,3.5513,3.5653,3.5654,3.5655,3.5655,0,0,3.5781,3.5765,3.5753,3.5742,3.5724,3.5699,3.566,3.5631,3.5612,3.5593,3.5558,3.5513,3.553,3.5513,3.5517,3.5487,3.5424,3.5509,3.5508,3.5492,3.5347,3.5332,3.5319,3.5432,3.543,3.5429,3.5348,0,3.5706,3.5641,3.565,3.5587,3.5557,3.5578,3.5544,3.5528,3.5524,3.5496,3.5491,3.5458,3.5485,3.5474,3.5446,3.5437,3.5394,3.5444,3.5398,3.5396,3.5401,3.5305,3.5289,3.5214,3.5338,3.5336,3.5335,0,3.5608,3.5588,3.5523,3.551,3.5498,3.5467,3.5441,3.5415,3.5397,3.5396,3.5377,3.5387,3.5345,3.538,3.5322,3.5355,3.5337,3.5331,3.5328,3.5322,3.536,3.5294,3.519,3.5178,3.5319,3.532,3.5321,0,3.5539,3.5495,3.545,3.544,3.5424,3.5402,3.5394,3.5378,3.536,3.5337,3.5325,3.5296,3.5279,3.5255,3.5256,3.5281,3.5196,3.5231,3.5191,3.5191,3.517,3.5171,3.5059,3.5162,3.5163,3.5163,3.5163,0,3.5452,3.5411,3.5419,3.539,3.5344,3.5354,3.5307,3.5301,3.5287,3.5257,3.5273,3.5243,3.5247,3.5216,3.5216,3.5167,3.516,3.5156,3.5156,3.5153,3.5153,3.514,3.5144,3.516,3.5161,3.5161,3.5162,0,3.5365,3.5369,3.5321,3.5312,3.5308,3.5274,3.5264,3.5236,3.5235,3.5196,3.5187,3.5184,3.5149,3.5148,3.5107,3.5107,3.5046,3.5053,3.5053,3.5054,3.5013,3.5016,3.4887,3.4869,3.4986,3.4985,3.4984,0,3.5309,3.5278,3.5265,3.5248,3.5239,3.521,3.5192,3.52,3.518,3.5158,3.5132,3.51,3.5074,3.5016,3.5008,3.4977,3.4982,3.4939,3.4977,3.4975,3.4978,3.498,3.4975,3.493,3.4929,3.4928,3.4927,0,3.5207,3.5211,3.5187,3.5163,3.5142,3.5123,3.5105,3.5088,3.5094,3.5071,3.5037,3.5017,3.4977,3.4943,3.4913,3.4902,3.4914,3.4916,3.4904,3.49,3.49,3.4898,3.503,3.4918,3.4919,3.4919,3.492,3.492,3.5132,3.5106,3.5093,3.5065,3.5053,3.5036,3.501,3.5006,3.4979,3.4949,3.4955,3.4916,3.4898,3.4859,3.4845,3.4814,3.4828,3.4812,3.4808,3.4803,3.4798,3.4908,3.4808,3.4808,3.4809,3.4809,3.4809,0,3.503,3.5024,3.4998,3.4974,3.4951,3.4969,3.495,3.4929,3.4896,3.488,3.4855,3.4815,3.4782,3.4773,3.4741,3.4717,3.4722,3.4708,3.4709,3.4705,3.4788,3.48,3.4705,3.4705,3.4705,3.4705,3.4705,3.4705,3.4974,3.493,3.4932,3.4881,3.4874,3.4839,3.4826,3.481,3.4797,3.4753,3.4727,3.4723,3.4708,3.4675,3.4646,3.4643,3.463,3.4613,3.4613,3.4689,3.47,3.471,3.4721,3.4611,3.4611,3.4533,3.4532,3.4532]}]]